Theta_e
327 327 329 331 332 332 331 331 331 331 331 331 330 330 331 332 332 333 333 333 333 333 332 331 331 332 332 330 331 333 333 333 333 333 332 332 332 331 331 331 331 331
327 328 329 330 331 332 331 331 331 331 331 331 329 329 330 331 331 331 332 333 333 333 333 332 332 333 333 332 331 332 333 333 333 333 333 332 332 332 332 331 331 331
328 328 329 329 329 331 331 331 331 330 330 330 329 330 330 331 331 331 331 331 332 333 333 332 333 333 333 332 331 333 333 333 333 333 332 332 332 332 331 331 331 331
328 328 328 329 329 329 330 330 330 330 328 328 330 331 330 331 331 331 332 331 330 331 332 333 333 333 333 333 332 333 333 333 333 333 332 332 332 331 331 331 331 331
328 328 328 328 328 329 329 330 331 330 329 328 329 331 331 331 331 331 332 332 331 330 331 333 334 333 333 333 333 333 333 332 332 332 332 332 331 331 331 331 331 331
327 328 328 328 329 329 329 329 330 330 330 329 330 330 331 331 331 331 332 331 331 331 330 332 334 334 334 333 333 333 333 332 331 331 331 331 331 331 331 331 330 330
327 327 328 328 329 329 328 329 329 329 330 330 330 331 331 331 331 331 331 331 331 331 330 329 332 334 333 333 333 332 332 332 331 331 331 331 331 331 331 330 330 330
326 327 328 328 328 328 328 329 329 329 330 330 331 331 331 331 331 330 330 331 332 332 330 329 330 332 332 332 332 331 331 331 331 331 331 331 331 331 331 330 330 331
324 326 327 328 328 328 328 329 329 330 330 330 331 331 330 330 331 330 331 331 332 331 330 329 330 331 331 331 330 330 331 331 331 331 332 332 332 331 331 331 331 331
322 324 326 328 329 329 329 329 329 330 330 330 330 331 330 330 330 330 331 331 332 331 330 329 329 330 331 331 330 330 331 330 331 331 332 332 332 331 331 331 331 331
320 322 323 325 327 329 330 330 330 329 329 329 329 330 330 330 330 330 330 331 331 330 329 329 329 330 331 331 331 331 331 331 331 332 332 332 331 331 331 331 331 331
317 319 321 323 324 327 329 330 330 329 328 328 328 328 329 330 329 330 330 331 331 329 328 329 329 330 330 330 330 330 330 331 331 331 331 331 331 330 331 330 331 331
315 318 319 321 323 325 327 328 329 329 328 328 328 328 328 329 329 329 330 330 329 327 327 328 329 329 330 329 329 329 329 329 329 329 330 330 330 330 330 330 330 330
312 316 318 319 322 325 325 327 328 328 327 327 328 327 328 329 329 329 330 330 328 327 327 328 328 329 329 328 328 328 328 327 327 328 329 330 330 330 330 330 329 330
309 313 316 318 321 324 325 326 327 327 327 327 327 327 327 328 329 329 330 329 327 327 327 328 328 329 328 328 328 328 327 327 327 328 329 329 330 330 330 329 329 329
307 310 313 316 319 322 324 325 326 327 327 327 327 327 327 328 328 328 329 328 327 327 328 328 329 329 328 327 327 327 326 326 326 327 328 328 329 329 328 328 327 327
306 308 310 313 317 320 323 324 326 327 326 326 326 326 327 327 327 328 328 326 327 327 328 328 329 328 328 326 326 326 326 326 325 326 326 326 327 327 326 325 326 326
305 306 308 311 314 318 320 323 325 326 326 326 326 326 326 326 326 327 327 326 326 327 328 328 328 328 326 325 325 325 325 325 324 324 324 324 324 325 324 324 325 325
304 305 306 309 312 315 318 321 324 325 326 325 325 325 325 325 325 326 326 325 326 327 327 328 327 326 324 324 324 324 324 324 323 322 323 323 323 323 323 324 324 323
304 304 305 306 309 312 315 318 320 323 324 324 324 323 323 323 324 324 324 324 325 326 327 327 326 324 323 323 324 323 323 322 321 321 322 322 323 323 323 324 323 323
303 304 304 305 306 308 310 312 314 316 317 318 319 321 320 320 320 321 322 323 323 324 325 324 323 323 322 322 322 321 321 321 321 321 321 322 323 323 323 323 323 323
303 303 303 304 305 305 305 306 307 308 309 310 311 315 316 315 315 316 317 318 319 321 321 321 320 321 320 320 320 320 320 320 320 321 321 322 322 322 322 322 323 324
302 303 303 303 303 303 302 303 303 303 304 304 305 307 308 308 308 308 309 310 312 315 317 318 318 319 319 318 319 319 319 319 320 320 320 320 320 320 320 320 321 321
303 302 303 302 302 302 301 301 301 301 301 301 301 302 302 303 304 304 304 305 307 309 312 315 317 317 317 316 316 318 318 319 319 318 318 317 317 316 316 317 317 317
303 303 303 302 302 301 301 301 300 300 300 300 300 300 300 302 303 303 303 304 305 306 307 310 312 314 314 314 314 316 317 318 317 317 315 314 313 313 313 313 313 314
303 303 302 302 302 301 301 301 301 300 300 300 300 299 300 301 302 302 302 303 305 306 306 306 307 309 310 311 312 314 315 315 316 315 313 310 309 309 309 308 309 310
Wind_Speed
15 15 13 11 12 16 19 20 21 21 22 23 22 22 24 23 22 23 25 25 25 26 26 25 26 27 25 24 26 24 22 23 22 21 22 22 22 21 19 18 16 16
17 16 15 14 14 17 19 20 21 21 21 20 19 19 20 18 19 21 23 24 25 26 26 24 25 25 23 23 25 23 22 22 21 21 22 21 20 20 19 17 16 16
18 18 18 18 17 17 17 17 18 18 18 15 14 17 18 16 16 19 21 23 24 25 25 24 25 24 21 22 24 22 21 22 21 21 21 20 19 19 18 16 15 15
16 17 18 18 17 16 16 17 18 17 16 16 15 15 16 15 16 18 20 22 23 24 24 23 23 23 22 22 23 21 21 22 21 21 21 20 19 18 17 15 15 16
16 16 16 18 18 19 20 21 20 17 16 18 18 17 16 16 16 18 20 21 21 23 24 23 21 22 22 21 21 22 22 21 20 20 19 19 19 18 17 15 15 16
18 18 17 17 19 20 21 23 23 22 21 20 19 19 19 17 17 18 19 21 21 21 24 23 22 21 20 20 21 22 22 20 19 18 18 18 18 17 16 15 15 15
17 17 16 16 18 20 20 22 25 25 23 20 19 20 20 18 17 17 18 20 22 22 22 22 22 22 20 20 22 22 21 19 19 18 17 18 18 18 17 16 15 15
16 15 15 17 19 20 19 21 23 24 23 22 20 20 20 19 18 16 18 20 22 22 22 19 20 20 20 21 22 21 21 20 19 18 18 19 19 19 18 17 16 16
16 14 14 17 19 20 20 22 23 23 24 23 21 21 22 20 19 18 20 22 22 22 22 19 19 20 20 20 21 21 21 21 20 19 19 20 21 20 19 18 17 16
16 14 14 16 18 18 20 22 23 24 23 22 21 21 22 21 20 20 21 22 23 23 22 20 21 22 21 21 21 21 21 21 20 19 20 21 21 20 19 18 17 16
18 15 14 14 15 18 20 21 23 25 24 22 21 21 22 22 21 22 23 24 24 23 22 21 21 23 23 22 22 22 21 21 20 20 20 20 20 19 18 17 17 16
21 19 17 15 13 14 19 22 23 24 24 23 22 22 23 23 24 23 24 25 25 23 22 21 22 24 24 23 23 22 21 21 20 20 20 20 19 19 17 16 15 15
22 22 21 17 13 12 16 21 25 25 24 23 23 23 23 24 25 24 24 25 25 24 23 22 23 25 24 23 22 21 21 20 18 19 19 19 19 18 16 15 15 14
23 21 21 19 14 13 15 20 24 26 24 23 24 25 25 25 25 25 25 25 24 23 22 22 24 25 23 22 22 22 21 19 18 18 18 18 18 17 16 16 14 14
25 24 22 20 16 14 16 20 24 25 23 24 26 27 26 26 26 27 26 25 25 24 22 23 25 26 23 22 23 23 21 19 18 18 17 17 17 16 16 16 15 14
28 26 24 22 18 15 17 20 24 25 24 26 27 28 29 28 28 28 28 27 27 25 24 25 27 26 24 23 23 23 22 20 19 17 17 16 17 17 16 15 14 13
31 29 27 24 20 17 17 21 23 25 26 28 28 29 30 30 30 30 30 29 29 27 26 27 28 26 25 24 23 22 21 20 19 18 17 17 17 17 16 14 13 12
32 31 29 26 22 18 17 20 23 25 26 27 28 29 31 32 33 33 31 30 29 28 27 28 27 27 26 26 24 22 20 19 19 18 18 18 18 17 16 15 14 12
32 31 30 27 23 19 16 17 20 25 27 27 28 30 31 31 32 33 32 30 29 28 28 27 27 27 26 25 24 22 20 19 19 18 18 18 18 17 17 17 15 14
33 31 29 28 25 20 17 14 13 17 22 25 27 28 28 28 30 32 31 30 28 28 28 28 27 26 25 24 23 21 21 20 19 19 18 18 18 18 18 17 16 14
34 32 29 27 25 22 18 15 12 8 7 12 17 22 24 25 26 27 28 28 28 28 28 28 27 25 25 24 23 22 21 21 20 20 19 19 19 19 18 17 15 14
32 31 29 27 25 24 22 20 16 11 7 2 6 15 20 20 19 20 21 23 24 26 26 25 24 25 24 24 24 24 22 21 21 21 21 20 20 19 18 16 15 15
31 30 28 27 26 25 24 22 19 16 12 9 7 10 15 15 14 15 15 16 18 21 24 24 22 22 23 24 25 26 24 23 23 22 21 21 20 19 18 17 16 15
30 29 28 27 26 26 25 24 22 20 17 16 14 14 17 19 18 18 16 14 14 14 16 21 21 20 22 23 24 25 26 25 25 23 23 23 22 21 20 19 17 16
30 28 27 26 25 25 26 26 25 23 21 21 19 19 23 26 25 24 24 20 18 18 16 17 19 19 19 20 21 23 24 25 26 26 25 25 24 24 22 21 20 19
30 28 26 25 23 24 25 26 27 26 26 26 22 20 26 32 31 29 29 27 24 22 21 20 19 17 14 15 18 21 23 24 26 27 28 28 26 25 25 23 22 21
Wind_Direction
279 267 260 261 266 267 263 257 251 245 239 226 216 221 226 226 227 225 224 225 223 222 218 215 218 219 218 221 223 220 219 221 221 222 222 220 222 225 226 228 229 228
278 269 257 250 254 265 269 267 258 250 247 232 215 222 231 230 234 234 230 229 224 219 218 216 217 219 219 221 222 219 218 221 222 222 221 219 220 225 228 230 231 231
279 275 270 260 258 262 266 267 263 258 259 248 222 222 228 226 229 233 235 237 231 221 217 216 215 215 218 223 224 221 220 221 221 222 222 219 221 224 226 228 228 228
289 287 285 278 275 276 273 269 268 266 266 262 251 241 234 230 224 221 227 235 237 232 222 215 215 214 213 218 223 222 221 222 221 222 221 221 222 223 223 224 225 224
301 302 298 292 287 282 277 273 269 264 255 251 255 255 247 240 229 217 217 220 228 240 235 219 214 217 214 214 218 222 222 222 223 223 222 221 221 220 220 222 223 223
311 308 302 297 292 282 273 271 269 265 259 256 255 252 246 240 229 221 220 216 216 231 238 226 216 218 219 214 214 220 222 223 223 223 223 221 217 216 217 219 219 219
326 315 302 289 282 277 270 268 269 266 263 261 254 246 241 236 229 224 224 222 217 220 229 228 219 216 215 214 215 219 221 222 222 221 221 219 215 214 215 216 216 214
335 318 299 282 276 278 272 268 270 269 262 257 252 247 242 235 230 224 221 220 219 219 221 223 220 215 212 214 217 217 217 217 218 218 218 217 214 216 217 216 215 212
341 326 304 285 279 282 278 271 270 270 263 254 249 247 242 234 228 223 218 215 215 220 219 216 219 220 218 218 216 214 214 214 216 218 217 216 216 217 218 217 215 212
343 335 320 296 278 272 274 273 269 265 260 251 245 242 237 232 226 219 217 213 210 215 218 214 217 222 221 219 216 214 214 214 214 216 216 217 218 219 219 220 219 216
345 334 325 312 291 270 265 267 266 260 254 248 245 240 232 229 225 217 213 211 208 211 215 212 215 220 220 217 215 215 217 218 216 215 215 217 219 221 221 223 223 222
350 340 329 321 310 288 272 265 262 257 250 244 242 238 231 226 224 218 211 209 208 210 211 210 214 219 218 216 215 215 218 221 220 218 217 217 219 220 221 224 226 227
350 344 335 323 308 293 281 270 261 254 247 240 235 231 228 225 222 218 214 212 212 210 207 207 212 217 217 217 217 215 216 220 220 218 217 216 217 217 220 226 226 226
346 342 337 327 305 283 280 275 264 255 247 240 232 224 222 222 222 219 216 213 213 209 204 204 211 216 216 216 216 214 216 219 217 217 216 214 215 218 224 230 227 225
347 343 339 332 313 284 277 275 267 259 248 235 227 221 218 219 218 217 214 211 210 206 201 203 211 215 215 216 216 215 215 216 215 215 215 214 217 219 223 227 226 223
351 349 346 339 323 296 280 274 266 258 246 232 224 221 219 216 212 210 209 208 207 201 198 202 209 213 215 216 215 213 213 215 215 213 211 213 215 217 217 219 219 221
357 354 353 347 333 310 288 277 267 255 242 231 224 220 217 213 208 205 204 205 203 197 195 200 205 210 214 214 212 212 215 216 214 211 210 213 215 214 211 210 209 211
2 359 358 354 344 327 303 282 266 251 239 229 220 215 213 208 204 202 202 203 200 196 196 199 204 208 211 211 211 212 214 213 211 210 209 209 209 208 204 201 199 197
7 4 2 0 356 343 323 297 269 249 237 227 217 212 208 203 200 198 199 200 197 195 197 200 203 207 208 210 211 210 210 209 207 206 202 198 198 197 194 191 189 186
10 8 5 6 6 359 347 329 296 260 241 228 216 207 200 198 197 195 195 196 195 195 197 199 201 204 206 208 208 205 204 203 200 196 190 185 185 185 184 182 183 183
12 11 9 12 15 13 9 2 347 319 267 234 214 200 194 193 192 190 190 192 191 192 194 195 197 200 203 203 201 197 196 195 191 185 180 176 174 175 177 177 176 177
14 14 12 16 22 25 24 21 17 18 23 32 188 186 184 183 181 179 181 184 185 188 189 189 192 195 196 194 192 189 187 184 181 175 170 167 165 165 169 170 170 172
16 18 17 19 26 33 33 33 33 37 49 65 95 139 147 146 146 148 155 164 168 175 181 182 183 185 185 184 185 185 183 178 173 168 161 158 156 156 159 160 162 168
21 23 24 24 29 37 41 42 44 47 59 71 71 82 102 109 109 107 110 121 126 133 154 165 165 167 171 172 175 181 183 178 171 164 156 151 148 147 147 148 149 152
26 28 31 29 31 40 48 51 52 52 62 72 68 67 83 93 95 93 90 90 93 94 100 119 133 146 158 163 166 172 177 175 170 161 150 144 143 141 139 138 137 137
30 33 36 36 35 42 51 58 61 58 59 65 63 63 77 84 84 84 82 79 83 87 82 83 96 115 137 154 161 163 165 166 164 158 149 142 140 138 135 132 132 132